IRIDIUM 181

Last updated on Tue Sep 22 2026 00:03:21 GMT+0000 (Coordinated Universal Time)

1 56726U 23068S 26264.05833501 .00000097 00000+0 22850-4 0 9996 2 56726 86.4547 16.7081 0002212 99.0018 261.1433 14.43309511176262
UTC large
Height (km)
Speed (km/s)
/
Latitude / Longitude
Inclination (degrees)
Orbital Period (minutes)
Azimuth
Elevation
Range (km)
Doppler Factor

Next 0 passes for location: London (51.5072 / 0.1276)

No passes found over London.
IRIDIUM 181